RH
8 9 12 26 43 58 74 95 81 99 100 98 96 54 95 100 100 100 100 100 100 100 100 100 97 100 99 91 100 100 100 100 100 100 100 100 100 100 100 97 100 100 100 100
12 11 11 12 15 23 40 56 61 59 68 73 79 51 80 100 88 100 100 100 100 100 100 100 100 100 100 100 100 100 100 100 100 100 100 100 100 100 100 100 100 100 100 100
12 14 15 14 14 13 14 15 13 21 20 19 30 30 38 74 87 69 95 67 78 89 97 100 97 90 100 97 100 100 100 100 100 100 100 100 100 100 100 100 100 100 100 100
17 17 15 16 15 16 19 19 19 19 21 23 23 30 47 41 90 79 62 53 47 63 75 74 88 94 95 87 90 98 94 89 100 90 93 90 95 100 100 100 100 100 100 100
25 26 26 25 26 27 27 27 26 24 24 22 20 19 19 26 44 58 89 99 93 92 99 90 82 72 77 85 95 100 100 100 100 100 100 100 100 100 100 93 100 96 100 100
33 37 43 42 38 35 32 34 33 36 39 39 42 41 37 34 31 29 31 69 98 100 100 100 97 91 100 100 100 100 100 89 90 100 99 89 81 78 70 71 59 56 57 55
44 44 44 42 39 36 36 35 40 43 42 44 43 46 46 49 48 49 51 49 47 42 39 41 56 85 98 100 100 98 96 100 93 93 89 84 82 80 80 80 76 75 56 49
52 52 52 48 45 46 46 46 45 50 52 49 45 48 50 50 53 47 48 46 39 36 40 40 41 44 44 43 34 33 40 42 42 40 39 35 34 34 32 26 23 17 19 24
63 62 63 58 56 55 54 53 51 51 53 54 51 47 54 53 54 51 57 55 54 46 52 47 41 32 29 26 28 26 24 26 25 25 21 19 20 18 16 14 15 17 18 26
64 64 64 64 65 64 62 60 57 56 58 61 61 64 66 69 66 68 64 55 53 48 45 48 46 43 39 36 37 33 29 28 24 18 12 9 7 6 6 5 5 5 8 10
82 77 76 77 81 79 80 76 70 64 61 60 61 60 62 66 70 66 67 60 58 58 52 52 48 46 46 46 45 45 37 37 29 19 10 6 5 4 4 4 4 4 4 4
85 90 89 86 78 81 82 78 85 81 79 70 60 62 66 65 66 66 68 66 70 63 56 50 48 48 51 51 50 45 38 38 26 15 7 4 4 4 3 3 3 3 3 4
76 75 79 83 82 80 80 77 73 78 76 69 63 66 64 68 65 69 73 66 71 66 59 49 49 47 52 51 49 48 46 33 19 9 5 4 3 3 3 3 3 3 3 3
81 81 80 75 76 77 79 78 74 73 66 72 70 70 74 75 82 78 74 66 61 59 56 56 50 49 52 50 49 44 43 29 15 6 4 3 3 3 3 3 3 2 3 3
64 67 78 80 77 76 75 73 74 72 73 74 74 79 79 85 80 77 66 62 62 56 52 55 47 49 49 53 42 41 40 22 10 5 4 3 3 3 4 4 4 4 3 2
77 74 63 65 71 76 76 76 75 74 71 70 72 68 68 69 71 68 64 62 57 57 51 54 45 49 47 53 43 36 35 17 7 4 4 3 4 4 5 5 5 5 5 4
98 93 89 72 70 68 74 79 84 94 93 88 83 77 74 71 73 66 64 58 56 55 50 50 47 46 48 43 42 35 30 14 6 4 4 4 4 5 5 6 6 6 6 6
100 100 100 100 98 91 92 77 77 83 98 93 92 92 87 81 72 63 62 58 58 56 50 48 49 43 48 43 37 34 25 11 5 4 4 4 4 5 5 6 6 6 6 6
97 100 100 100 100 100 100 100 96 95 99 96 97 95 89 80 70 65 64 59 58 56 52 47 50 46 50 42 33 29 22 8 4 4 4 5 5 5 5 6 6 6 6 6
77 98 100 100 99 100 100 100 100 97 89 84 82 77 75 72 71 68 64 59 58 55 52 51 47 46 45 44 31 28 17 6 4 4 5 5 5 5 5 5 6 6 6 6
95 82 91 100 100 100 100 100 100 100 100 98 84 76 73 72 66 66 62 63 59 58 55 54 50 48 51 42 31 26 11 5 4 4 5 5 4 5 5 5 5 5 6 6
94 91 78 72 100 100 97 99 100 100 100 97 88 79 76 77 72 68 60 67 62 62 56 57 56 47 46 42 30 23 7 5 4 5 5 4 4 4 5 5 5 5 5 5
96 100 100 89 76 97 95 93 100 100 100 99 92 87 81 74 74 73 68 67 63 64 61 52 50 47 47 39 30 17 5 5 5 5 5 4 4 4 5 5 5 5 5 5
88 100 100 100 97 91 86 85 97 100 100 100 96 95 92 91 75 72 74 76 66 67 65 51 48 50 50 43 30 12 5 5 5 5 4 4 3 4 5 5 5 6 6 5
98 100 100 100 100 100 84 76 88 100 100 100 95 97 91 87 88 80 86 75 67 68 64 50 48 51 50 42 27 9 5 5 5 4 4 4 3 3 5 6 5 6 6 6
84 99 100 100 100 100 96 81 85 100 100 100 85 94 100 93 87 77 78 68 72 80 64 51 48 49 50 38 22 6 5 5 5 4 4 4 3 3 4 6 6 7 7 6
96 90 90 94 100 100 100 88 92 100 100 100 86 89 100 100 85 78 69 76 77 81 59 48 49 49 47 32 16 6 5 5 4 4 4 4 4 4 4 6 6 7 8 8
Wind_Speed
25 29 33 38 38 38 36 33 30 29 26 28 28 56 84 92 105 103 91 103 108 100 100 95 95 96 101 115 112 104 101 95 97 105 98 96 94 92 95 99 99 103 98 97
26 22 21 25 29 34 34 35 33 33 36 38 41 61 81 99 103 109 107 99 102 112 112 103 94 94 100 101 103 113 109 109 98 104 107 110 109 108 102 104 102 104 108 113
34 31 26 23 20 16 15 12 13 18 16 20 28 39 73 95 101 86 109 106 107 114 113 116 111 110 103 115 112 118 115 120 120 125 126 117 115 112 116 111 109 110 111 113
43 41 35 31 29 27 24 20 18 17 14 12 11 16 34 69 103 90 85 99 91 106 113 117 121 116 112 118 118 121 130 134 129 132 135 137 141 136 134 131 135 128 128 133
50 48 43 39 39 40 39 35 33 30 28 24 18 14 14 20 37 63 87 92 92 106 103 110 118 104 121 128 115 116 117 126 133 132 136 140 140 141 148 151 144 149 147 142
47 47 48 45 42 40 38 35 34 34 32 30 27 24 20 17 12 8 22 49 78 84 96 97 93 97 117 110 110 110 122 141 142 140 140 152 159 164 164 165 165 166 167 167
40 40 38 38 38 34 34 32 29 26 26 24 23 20 19 18 15 9 7 6 10 15 28 48 60 78 89 101 108 112 120 129 135 140 152 156 161 163 161 168 169 166 163 167
35 34 32 32 29 29 27 28 25 23 20 20 16 13 14 12 10 7 5 2 4 10 15 18 29 33 38 47 47 50 52 74 78 78 84 96 97 98 107 115 120 122 131 140
26 25 24 24 24 24 23 23 20 18 14 16 13 7 9 10 6 9 11 11 12 19 22 30 34 33 41 34 49 52 50 52 59 78 87 93 97 101 102 103 111 121 121 127
18 18 17 17 17 16 15 16 15 15 13 14 15 13 15 18 14 19 23 26 30 30 38 36 44 49 52 55 61 59 62 64 67 77 79 85 91 94 96 97 95 97 104 112
9 9 9 10 11 12 12 12 11 12 13 15 17 18 23 26 28 28 29 34 33 39 41 46 49 54 60 64 69 70 73 77 82 84 82 83 83 82 82 82 81 80 84 89
9 8 7 5 4 5 7 11 12 13 14 15 16 21 25 28 31 35 39 41 46 49 53 56 56 60 67 70 72 78 76 85 86 83 79 75 71 68 66 65 66 65 66 69
13 13 13 12 10 7 9 10 13 15 18 19 21 24 29 32 37 39 45 50 53 54 58 63 66 66 72 77 83 86 86 90 89 82 76 70 64 59 58 59 57 57 56 57
14 15 14 14 13 12 12 13 17 20 22 24 26 30 35 38 41 44 48 52 57 60 65 69 71 75 74 81 85 87 91 91 87 78 71 65 60 56 53 52 54 52 49 51
17 16 15 16 14 13 16 19 21 23 25 28 32 35 39 42 45 48 53 57 60 64 69 74 74 81 82 89 90 89 97 92 85 76 68 61 56 53 51 50 48 49 48 45
23 23 21 21 20 20 21 24 25 27 28 31 35 40 43 47 50 55 58 61 66 71 74 80 80 85 88 94 97 92 98 92 83 73 66 60 55 54 52 50 49 47 45 44
24 27 29 27 27 28 28 29 31 32 33 34 38 42 48 52 55 60 63 64 70 75 81 83 86 89 94 93 99 97 98 93 84 72 64 58 56 54 52 50 49 47 44 43
25 29 31 33 34 34 36 38 38 38 39 42 45 49 51 53 59 64 68 71 76 81 88 89 94 93 97 99 99 100 98 92 83 71 63 59 57 55 51 49 47 45 43 42
26 27 29 32 35 37 38 41 43 41 43 45 49 52 58 61 66 68 73 77 80 83 90 94 97 99 101 102 99 98 96 91 80 69 62 60 59 55 51 48 45 42 41 40
31 30 30 31 34 37 39 42 45 46 51 53 55 58 62 64 68 72 76 83 84 89 92 96 98 100 104 103 101 101 97 90 77 67 61 60 59 55 50 47 43 41 40 39
42 38 36 36 39 40 41 42 47 51 55 58 62 66 68 70 72 77 80 86 89 94 98 101 101 105 108 107 105 100 96 85 74 66 62 60 57 52 48 44 42 41 40 37
44 45 43 41 42 45 45 46 49 53 59 64 65 68 71 75 79 83 86 89 92 97 102 103 106 107 108 111 106 100 93 82 72 66 63 59 55 50 46 42 39 38 38 35
47 47 49 49 46 48 49 49 51 57 62 67 70 73 76 78 81 83 88 94 97 101 104 107 106 109 110 112 107 100 91 79 71 66 62 57 53 48 44 41 37 36 36 32
50 48 51 54 54 53 53 52 54 60 67 71 72 73 77 79 85 86 89 94 100 106 108 108 107 110 112 114 106 100 88 79 72 67 61 56 51 47 43 40 36 34 34 30
54 55 57 56 58 59 61 57 57 63 71 75 76 77 81 82 85 90 95 98 102 107 111 110 109 111 112 113 105 98 87 79 72 67 60 55 50 46 42 39 35 33 32 28
62 62 61 61 62 63 64 64 61 66 74 79 80 80 84 86 89 92 96 99 104 109 112 109 110 109 114 111 104 95 85 78 72 66 59 54 49 44 40 37 34 31 30 28
67 67 66 66 67 69 70 70 66 70 75 80 83 83 85 89 94 95 100 102 106 111 112 111 110 112 113 109 102 93 83 77 71 64 58 53 48 43 39 35 32 30 28 27
Wind_Direction
129 135 137 134 135 137 136 136 147 152 160 166 175 190 190 193 195 201 201 204 205 210 213 218 224 223 225 228 231 233 237 237 239 242 243 245 247 250 255 257 256 254 257 254
109 115 130 141 147 152 152 156 161 166 172 177 179 188 193 195 201 206 204 210 208 212 217 219 224 230 234 230 232 235 241 242 245 247 249 251 251 252 248 252 254 255 258 258
97 95 96 101 104 104 113 141 168 180 193 198 196 197 195 201 206 211 212 213 217 216 217 218 224 227 235 235 237 237 239 242 248 250 252 253 254 254 254 255 254 256 255 258
91 92 95 98 100 102 106 111 117 124 148 171 186 203 210 208 208 216 222 223 229 225 224 224 228 231 235 235 237 241 243 244 248 249 251 254 255 257 259 259 259 259 258 261
85 84 83 85 89 92 94 93 95 100 105 109 117 136 162 191 217 229 224 230 233 227 230 233 236 239 242 242 246 248 252 251 253 254 253 254 255 257 258 258 260 260 261 264
81 84 88 86 87 87 89 88 88 86 86 85 87 88 92 97 110 174 217 236 241 244 239 242 251 248 246 249 250 256 256 252 253 254 257 257 257 255 260 260 260 259 261 262
83 81 78 81 84 82 74 71 75 79 84 85 88 87 91 93 95 97 153 183 211 225 235 244 253 252 253 254 255 260 261 258 257 263 260 259 261 262 266 264 266 267 267 266
81 81 79 80 80 82 82 75 70 74 84 83 81 73 78 80 67 53 21 296 265 241 261 258 252 244 255 248 255 273 266 261 260 264 265 263 265 267 269 268 267 266 267 266
78 80 79 79 80 86 87 88 89 86 80 77 70 64 55 54 33 15 13 354 322 320 308 323 320 308 309 287 287 293 288 282 276 267 270 271 271 272 272 272 270 270 268 266
67 68 69 72 71 72 74 76 70 71 66 51 38 38 18 12 2 3 0 352 344 341 339 328 333 329 328 325 324 315 313 306 301 299 293 285 280 278 277 276 273 269 267 264
51 55 52 47 43 37 32 36 34 31 26 19 10 4 357 352 354 353 347 344 345 341 332 335 330 334 333 330 328 327 325 320 316 310 301 293 288 285 282 279 277 274 270 268
11 6 13 10 7 5 1 355 354 356 359 358 1 354 347 343 344 340 339 340 341 339 338 335 333 337 336 334 332 330 327 326 318 312 306 300 297 293 288 284 282 280 275 272
9 359 352 346 339 316 330 340 331 334 339 345 342 338 335 334 337 337 335 337 335 337 336 338 339 334 336 335 333 335 332 327 324 319 313 310 306 300 295 292 287 284 280 277
0 356 343 340 333 321 308 311 321 331 333 331 332 329 326 331 331 332 333 333 332 331 332 334 336 336 337 336 335 335 333 329 327 322 318 315 311 306 302 298 295 290 284 280
348 345 344 345 336 323 319 318 318 324 325 326 325 323 324 325 327 328 329 330 330 331 333 335 337 340 338 338 336 336 336 331 329 325 321 318 313 308 304 300 297 294 291 284
331 333 332 335 337 336 330 327 323 324 322 322 320 320 321 320 323 325 326 328 330 331 333 335 338 337 339 337 336 336 336 332 331 327 322 319 315 311 307 302 300 297 294 290
318 325 324 325 328 328 325 325 324 317 316 314 314 316 317 318 320 324 324 327 329 331 334 335 336 338 338 336 336 337 335 333 332 327 323 320 316 312 309 305 301 298 295 291
297 304 311 316 319 320 320 321 322 319 315 314 315 316 316 316 318 322 323 326 329 331 333 334 336 337 338 337 337 337 335 334 332 328 324 320 317 314 310 306 302 299 296 291
279 290 296 299 307 313 314 313 315 315 312 312 313 314 315 317 318 320 322 324 328 332 333 335 337 340 340 337 336 337 335 334 332 328 324 321 318 315 312 308 304 301 298 293
273 280 287 291 297 300 307 306 308 309 311 313 314 315 315 317 320 322 323 325 329 333 333 336 339 339 339 337 336 337 335 334 332 328 324 322 319 316 313 310 306 304 300 295
274 274 277 284 289 292 297 301 303 304 306 309 312 313 314 317 320 322 324 326 330 333 335 336 338 340 339 337 338 337 335 334 331 328 325 323 320 317 314 311 308 306 304 299
275 273 277 279 283 285 289 295 302 306 304 307 308 310 313 316 319 322 325 326 329 331 334 334 337 339 339 338 338 336 335 333 330 328 325 323 321 318 316 313 309 308 306 301
273 274 277 282 283 287 290 295 299 302 304 306 308 310 312 315 318 321 323 324 327 330 332 334 336 338 339 336 337 334 334 333 330 328 326 323 322 320 317 315 311 310 307 302
270 274 279 282 283 286 287 292 297 301 303 304 307 311 313 316 317 319 321 323 327 328 331 333 336 338 337 337 336 334 334 332 330 328 327 323 323 320 318 316 312 311 307 303
268 272 277 280 281 284 287 290 296 300 301 302 305 308 311 314 315 318 319 322 326 329 331 332 335 338 337 337 336 334 334 332 330 327 326 323 322 321 318 316 312 311 309 303
266 271 273 276 282 284 287 289 294 297 299 300 304 307 309 313 314 316 317 321 325 326 329 330 335 336 336 335 334 333 334 332 330 327 326 323 321 320 317 315 311 310 309 305
262 266 272 277 280 283 284 288 291 292 296 299 303 306 306 311 313 315 317 321 324 325 328 331 334 335 333 333 333 332 332 330 329 326 325 323 320 320 315 313 311 308 309 305